This demonstration page uses our WeatherBlox Daily Observations layout. Learn more.

38.88101, -77.10428

Hourly Observations for March 2, 2016

Temp ( °F °C ) Dew Point ( °F °C ) Humidity (%) Winds ( mph kmh ) Pressure ( in mb ) Visibility ( mi km ) Precip ( " mm )
12:52 am 00:52 Cloudy with Light Rain 58 14.4 50 10 75 75 SSW 13 20 29.57 1001 9 14.48406 0.02 0.508
1:52 am 01:52 Cloudy with Light Rain 56 13.3 53 11.7 90 90 SSW 16 26 29.57 1001 7 11.26538 0.04 1.016
2:52 am 02:52 Cloudy with Light Rain 57 13.9 51 10.6 81 81 W 13 20 29.58 1002 10 16.0934 0.03 0.762
3:52 am 03:52 Cloudy 54 12.2 46 7.8 75 75 WSW 8 13 29.6 1002 10 16.0934 0.01 0.254
4:52 am 04:52 Mostly Cloudy 52 11.1 36 2.2 55 55 NW 31 50 29.65 1004 10 16.0934 0 0.0254
5:52 am 05:52 Mostly Clear 46 7.8 29 -1.7 51 51 NW 23 37 29.7 1006 10 16.0934 0 0
6:52 am 06:52 Mostly Sunny 43 6.1 27 -2.8 53 53 NW 21 33 29.77 1008 10 16.0934 0 0
7:52 am 07:52 Partly Cloudy 40 4.4 24 -4.4 53 53 WNW 24 39 29.82 1010 10 16.0934 0 0
8:52 am 08:52 Partly Cloudy 40 4.4 21 -6.1 47 47 WNW 21 33 29.88 1012 10 16.0934 0 0
9:52 am 09:52 Partly Cloudy 40 4.4 19 -7.2 43 43 NW 21 33 29.91 1013 10 16.0934 0 0
10:52 am 10:52 Partly Cloudy 40 4.4 17 -8.3 40 40 NNW 36 57 29.94 1014 10 16.0934 0 0
11:52 am 11:52 Partly Cloudy 42 5.6 17 -8.3 36 36 NW 25 41 29.96 1015 10 16.0934 0 0
12:52 pm 12:52 Partly Cloudy 41 5 15 -9.4 35 35 WNW 22 35 29.93 1014 10 16.0934 0 0
1:52 pm 13:52 Mostly Sunny 42 5.6 17 -8.3 36 36 NNW 21 33 29.94 1014 10 16.0934 0 0
2:52 pm 14:52 Mostly Sunny 42 5.6 16 -8.9 35 35 NW 23 37 29.97 1015 10 16.0934 0 0
3:52 pm 15:52 Mostly Sunny 41 5 15 -9.4 35 35 NW 21 33 29.98 1015 10 16.0934 0 0
4:52 pm 16:52 Mostly Sunny 40 4.4 16 -8.9 38 38 NNW 24 39 30.03 1017 10 16.0934 0 0
5:52 pm 17:52 Mostly Sunny 38 3.3 15 -9.4 39 39 WNW 18 30 30.07 1018 10 16.0934 0 0
6:52 pm 18:52 Clear 36 2.2 14 -10 40 40 NW 14 22 30.1 1019 10 16.0934 0 0
7:52 pm 19:52 Clear 35 1.7 14 -10 42 42 NW 13 20 30.14 1021 10 16.0934 0 0
8:52 pm 20:52 Clear 34 1.1 13 -10.6 42 42 NNW 16 26 30.18 1022 10 16.0934 0 0
9:52 pm 21:52 Clear 33 0.6 13 -10.6 43 43 NNW 13 20 30.19 1023 10 16.0934 0 0
10:52 pm 22:52 Clear 32 0 13 -10.6 45 45 NNW 8 13 30.22 1023 10 16.0934 0 0
11:52 pm 23:52 Clear 31 -0.6 13 -10.6 47 47 NW 7 11 30.21 1023 10 16.0934 0 0

Powered by AerisWeather